TimeMDT,TemperatureF,Dew PointF,Humidity,Sea Level PressureIn,VisibilityMPH,Wind Direction,Wind SpeedMPH,Gust SpeedMPH,PrecipitationIn,Events,Conditions,WindDirDegrees,DateUTC
5:40 AM,79,73,77,29.89,2,South,4.5,,,,,180,2013-08-19 11:40:00
5:50 AM,77.0,69.8,78,29.91,10.0,South,8.1,-,N/A,,Clear,170,2013-08-19 11:50:00
6:46 AM,75.2,68.0,78,29.87,10.0,South,6.9,-,N/A,,Partly Cloudy,180,2013-08-19 12:46:00
7:54 AM,77.0,68.0,74,29.88,10.0,South,8.1,-,N/A,,Clear,180,2013-08-19 13:54:00
8:40 AM,83,74,68,29.93,16,South,6.7,,,,Scattered Clouds,180,2013-08-19 14:40:00
8:40 AM,78.8,68.0,69,29.94,10.0,SSW,8.1,-,N/A,,Partly Cloudy,200,2013-08-19 14:40:00
9:41 AM,87.8,59.0,38,29.88,12.0,SW,8.1,-,N/A,,Clear,220,2013-08-19 15:41:00
10:51 AM,93.2,55.4,28,29.86,12.0,South,3.5,-,N/A,,Clear,170,2013-08-19 16:51:00
11:46 AM,96.8,59.0,28,29.90,12.0,NW,3.5,-,N/A,,Clear,320,2013-08-19 17:46:00
11:50 AM,81,73,71,29.85,19,West,6.7,,,,,270,2013-08-19 17:50:00
12:40 PM,96.8,59.0,28,29.84,12.0,NW,6.9,-,N/A,,Clear,320,2013-08-19 18:40:00
1:42 PM,96.8,59.0,28,29.82,12.0,North,12.7,-,N/A,,Clear,360,2013-08-19 19:42:00
2:50 PM,103,75,32,29.80,19,NW,8.9,,,,,320,2013-08-19 20:50:00
2:53 PM,98.6,62.6,30,29.91,10.0,NNW,11.5,-,N/A,,Clear,340,2013-08-19 20:53:00
3:51 PM,98.6,62.6,30,29.78,10.0,NNW,13.8,-,N/A,,Clear,340,2013-08-19 21:51:00
4:52 PM,98.6,60.8,29,29.76,10.0,NW,11.5,-,N/A,,Clear,320,2013-08-19 22:52:00
5:43 PM,96.8,59.0,28,29.91,10.0,NW,6.9,-,N/A,,Clear,320,2013-08-19 23:43:00
5:45 PM,100,71,30,29.74,19,NW,6.7,,,,,320,2013-08-19 23:45:00
6:50 PM,95.0,66.2,39,29.75,10.0,NNW,5.8,-,N/A,,Clear,340,2013-08-20 00:50:00
7:43 PM,91.4,53.6,28,29.76,10.0,SSW,9.2,-,N/A,,Clear,210,2013-08-20 01:43:00
8:45 PM,88,67,41,29.77,2,South,11.2,,,,,180,2013-08-20 02:45:00
8:50 PM,86.0,57.2,37,29.91,10.0,South,11.5,-,N/A,,Clear,190,2013-08-20 02:50:00
9:47 PM,82.4,57.2,42,29.83,10.0,SSW,9.2,-,N/A,,Clear,200,2013-08-20 03:47:00
10:49 PM,82.4,53.6,37,29.86,10.0,South,11.5,-,N/A,,Clear,190,2013-08-20 04:49:00
11:50 PM,83,63,41,29.79,2,South,11.2,,,,,180,2013-08-20 05:50:00